Wind_Speed
14 14 14 15 15 16 17 18 18 18 18 19 19 20 20 21 21 22 22 23 24 24 24 24 24 25 26 26 26 26 26 27 28 28 28 27 28 29
12 12 13 14 15 16 16 17 17 18 18 20 20 21 21 22 22 22 22 23 23 24 24 24 24 25 26 27 26 26 27 28 28 29 29 29 29 30
13 13 13 15 15 15 16 17 17 18 18 19 19 20 21 23 22 22 23 23 23 24 24 24 25 25 25 26 26 27 27 28 28 28 29 29 29 30
13 13 14 14 15 15 16 17 17 18 18 19 20 20 22 23 22 22 22 23 23 23 24 25 25 25 25 26 26 27 28 28 29 29 29 30 30 30
12 13 13 14 14 15 16 17 17 18 18 19 20 20 21 21 22 22 22 23 23 24 24 24 24 24 25 25 26 27 28 28 28 29 29 30 30 30
14 14 14 14 14 15 16 16 16 17 18 19 19 20 20 21 21 22 23 23 24 24 24 25 25 25 25 26 27 27 28 27 27 28 29 30 29 29
14 14 14 14 15 15 16 17 17 18 18 19 20 21 21 22 23 23 24 24 25 25 25 26 26 26 26 26 27 27 28 27 27 27 28 29 29 29
14 15 15 16 16 16 17 18 18 19 19 20 21 21 22 23 23 24 25 25 26 26 26 26 26 26 26 26 26 26 26 26 27 27 28 28 28 29
15 16 16 17 17 18 19 19 19 20 21 22 23 23 23 24 24 25 25 26 26 26 25 25 26 25 25 25 25 26 26 27 27 27 27 27 28 29
16 17 18 18 19 19 19 20 20 22 23 24 24 24 24 24 25 25 26 26 26 26 26 26 25 25 25 25 25 25 26 26 26 26 26 27 28 28
18 19 19 20 20 20 20 21 21 22 23 24 24 24 24 25 26 26 25 25 25 26 26 26 26 26 26 26 25 25 25 25 26 26 26 27 28 29
20 21 20 20 21 21 21 21 21 22 22 23 24 24 24 24 24 24 25 25 26 26 26 26 26 26 26 26 26 26 26 26 27 27 27 28 28 29
21 21 21 22 22 21 21 21 21 22 22 23 24 24 24 23 23 24 25 25 26 26 26 26 27 26 26 26 26 27 27 27 27 27 27 28 29 30
20 21 21 22 22 22 21 21 22 22 23 23 22 22 22 23 23 23 24 25 26 26 26 26 26 26 26 26 26 26 27 27 27 28 28 29 30 31
21 21 21 21 22 22 23 23 23 23 23 22 22 22 22 23 23 24 24 24 24 25 25 25 25 25 25 25 26 26 26 27 28 28 29 30 30 31
22 22 22 22 23 23 23 24 24 24 23 22 22 23 23 23 23 24 24 24 23 24 24 24 24 24 25 26 27 27 27 27 27 28 28 28 29 30
22 22 22 23 23 23 24 24 24 24 24 23 24 24 24 24 24 24 24 24 24 25 25 25 25 25 26 26 27 27 28 28 28 28 28 29 29 30
23 23 24 23 23 23 24 24 24 24 24 24 25 25 24 25 25 24 24 24 24 24 25 25 26 26 26 26 27 27 27 28 28 29 29 29 29 29
24 24 24 25 24 24 24 24 24 24 24 24 24 24 25 25 25 24 24 23 24 24 25 25 26 26 27 27 27 28 28 28 28 28 28 28 28 28
24 24 25 25 24 24 24 24 24 24 24 24 24 24 24 25 25 24 24 25 25 25 25 26 27 27 26 27 27 27 27 27 27 27 28 28 28 28
23 23 24 24 24 23 22 23 23 23 23 24 24 24 24 24 24 24 25 25 26 26 26 26 26 26 26 27 27 27 27 27 26 27 27 28 28 28
22 22 22 22 22 22 22 23 23 23 23 24 24 24 24 24 24 25 25 26 27 28 27 27 27 27 27 26 27 27 27 27 27 27 27 27 28 28
21 21 21 21 21 22 22 23 23 24 24 24 25 25 25 25 26 26 27 27 28 28 27 27 27 27 27 27 27 27 27 27 27 28 28 28 28 28
Wind_Direction
259 259 261 259 256 257 256 257 259 262 264 266 269 269 269 273 276 276 275 275 275 274 274 274 273 270 268 267 267 266 266 264 263 263 261 259 257 257
259 258 260 261 259 261 259 258 258 261 266 270 271 271 271 275 277 278 277 278 278 277 275 274 275 274 272 269 268 268 268 266 264 263 261 260 258 258
261 263 265 266 263 262 261 262 262 263 268 271 272 272 274 277 278 278 278 278 278 276 275 275 275 275 274 272 271 269 268 267 265 264 264 262 260 259
263 265 267 268 265 266 267 267 267 268 271 273 274 275 275 277 279 279 278 279 279 277 276 276 276 275 275 275 274 272 270 269 268 268 267 265 262 260
266 268 270 272 274 273 270 270 271 272 275 275 277 279 280 280 281 279 278 280 280 279 278 278 277 277 275 276 276 276 275 274 271 270 269 268 267 264
266 269 272 276 278 279 278 276 275 274 276 276 279 280 280 281 282 281 279 280 280 280 279 279 279 279 277 279 279 278 277 276 274 272 270 268 268 265
268 270 272 275 278 280 280 277 275 276 278 278 279 280 281 280 281 282 282 281 281 282 282 282 282 281 280 280 280 278 276 275 274 272 270 268 267 264
275 274 274 275 277 278 279 278 276 278 280 279 281 283 283 282 282 283 283 283 283 283 283 283 283 283 282 281 280 278 276 275 274 272 270 268 267 266
282 280 279 279 279 280 279 280 281 281 281 283 283 283 284 284 283 283 283 283 283 284 284 284 285 286 286 284 282 280 278 278 276 274 272 269 268 268
281 281 281 281 282 281 280 284 285 284 283 283 284 283 284 285 285 284 284 283 283 284 285 285 284 283 284 284 285 283 280 279 279 276 274 272 270 268
280 281 282 283 283 284 284 285 285 285 285 284 284 285 285 285 285 284 283 282 283 283 284 284 284 283 283 283 284 285 284 282 280 279 276 274 272 270
280 281 281 282 284 284 283 284 286 286 286 286 286 286 286 285 284 284 285 284 285 286 284 283 282 283 283 282 283 284 284 283 281 280 278 276 274 273
281 281 280 280 281 283 285 285 286 287 289 289 289 288 286 286 286 286 285 285 285 286 285 283 282 282 282 282 282 283 284 285 284 281 279 278 276 275
282 282 282 282 282 284 286 287 287 289 290 290 290 290 289 288 289 289 288 287 286 287 287 285 284 283 282 282 282 283 283 284 284 283 281 280 279 277
279 281 281 280 281 283 284 286 287 288 289 289 290 290 291 291 291 291 290 290 288 289 288 287 286 285 284 283 284 284 284 284 285 284 284 283 281 280
279 279 280 281 282 284 285 285 286 286 287 287 289 290 290 292 293 293 291 291 291 291 291 289 287 287 286 285 285 285 285 285 286 287 287 285 284 282
278 279 280 281 283 285 286 286 285 285 285 286 288 289 289 291 292 292 291 291 291 292 292 291 291 290 289 289 288 287 287 286 287 287 287 287 286 285
277 279 281 282 283 284 285 285 284 283 284 285 287 289 289 291 292 293 293 292 292 293 292 292 291 291 290 290 290 290 289 289 288 287 287 288 287 285
278 281 283 283 283 283 283 283 283 283 285 286 287 289 291 292 292 293 294 294 294 294 293 292 292 291 291 291 291 292 292 291 290 289 289 289 289 288
280 282 283 282 282 282 282 283 283 283 284 286 289 291 293 294 293 292 292 293 293 293 293 294 293 292 291 291 292 293 294 293 291 289 289 289 289 289
282 283 284 283 282 281 280 281 282 283 285 286 289 291 292 293 293 291 291 292 292 292 293 294 293 292 291 292 293 293 293 292 291 291 291 291 290 289
284 285 285 284 282 281 281 281 282 283 285 287 288 290 292 292 293 293 292 292 292 292 292 292 292 292 292 291 292 292 292 290 290 291 292 292 291 289
285 287 287 285 284 283 282 281 282 283 285 286 288 289 291 291 292 293 293 292 292 292 292 292 291 291 291 291 291 292 292 291 291 291 292 292 292 291
Height
5822 5822 5823 5823 5823 5824 5825 5825 5826 5826 5826 5825 5825 5825 5824 5824 5824 5824 5823 5822 5821 5821 5820 5820 5819 5818 5817 5817 5817 5817 5817 5816 5817 5817 5817 5818 5819 5820
5819 5819 5820 5820 5820 5820 5820 5821 5821 5821 5821 5821 5820 5820 5819 5819 5818 5818 5817 5816 5815 5815 5814 5813 5812 5811 5810 5810 5810 5810 5809 5809 5809 5810 5810 5811 5812 5812
5816 5816 5816 5816 5816 5816 5816 5816 5816 5816 5816 5815 5815 5814 5814 5813 5813 5812 5811 5810 5810 5809 5808 5807 5806 5805 5804 5803 5803 5802 5802 5801 5801 5802 5802 5803 5804 5804
5814 5814 5814 5813 5813 5812 5812 5812 5812 5811 5811 5811 5810 5809 5809 5808 5807 5806 5806 5804 5804 5803 5802 5801 5800 5799 5798 5797 5796 5795 5794 5794 5794 5794 5795 5795 5796 5796
5811 5810 5810 5810 5809 5809 5808 5808 5807 5807 5807 5806 5805 5804 5803 5802 5801 5801 5800 5799 5797 5796 5795 5794 5793 5792 5791 5790 5789 5788 5787 5787 5787 5787 5787 5787 5787 5788
5807 5807 5807 5806 5806 5805 5804 5804 5803 5803 5802 5801 5800 5799 5798 5797 5796 5795 5794 5793 5791 5790 5789 5788 5787 5786 5785 5784 5783 5781 5780 5779 5779 5778 5778 5779 5779 5780
5804 5803 5803 5802 5802 5801 5800 5799 5799 5798 5797 5796 5795 5794 5793 5792 5791 5789 5788 5787 5785 5784 5783 5781 5780 5779 5777 5776 5775 5774 5773 5772 5771 5771 5771 5771 5771 5772
5800 5799 5799 5798 5797 5797 5796 5795 5794 5793 5792 5791 5790 5788 5787 5786 5785 5783 5782 5780 5779 5778 5776 5774 5773 5772 5770 5769 5768 5767 5765 5764 5764 5763 5763 5763 5763 5764
5796 5795 5794 5794 5793 5792 5791 5790 5789 5787 5786 5785 5784 5782 5781 5780 5778 5777 5775 5774 5772 5771 5769 5768 5766 5765 5763 5762 5761 5760 5758 5757 5756 5755 5755 5755 5755 5756
5792 5791 5790 5789 5788 5787 5786 5785 5783 5782 5780 5779 5778 5776 5775 5773 5772 5770 5768 5767 5765 5764 5762 5761 5760 5758 5756 5755 5754 5752 5751 5750 5749 5748 5747 5747 5747 5747
5787 5786 5785 5784 5783 5782 5780 5779 5778 5776 5774 5773 5771 5770 5768 5767 5765 5763 5762 5760 5759 5757 5756 5754 5753 5751 5750 5748 5747 5746 5744 5743 5742 5741 5740 5740 5739 5739
5781 5780 5779 5778 5777 5775 5774 5773 5771 5770 5768 5767 5765 5763 5762 5760 5758 5756 5755 5753 5752 5750 5749 5747 5746 5744 5743 5742 5740 5738 5737 5736 5735 5734 5733 5732 5731 5730
5775 5774 5773 5772 5770 5769 5768 5766 5765 5763 5762 5760 5758 5757 5755 5753 5751 5749 5748 5746 5745 5743 5742 5740 5739 5737 5736 5735 5733 5731 5730 5728 5727 5726 5725 5724 5723 5722
5768 5767 5766 5765 5764 5763 5761 5760 5759 5757 5755 5754 5752 5750 5749 5747 5745 5743 5741 5739 5737 5736 5734 5732 5731 5730 5728 5727 5726 5724 5722 5721 5719 5718 5716 5715 5714 5713
5762 5761 5760 5758 5757 5756 5755 5754 5752 5750 5749 5747 5746 5744 5743 5740 5738 5736 5734 5732 5730 5729 5727 5725 5724 5722 5721 5720 5718 5717 5715 5713 5711 5710 5708 5707 5705 5704
5756 5754 5753 5752 5750 5749 5748 5746 5745 5744 5742 5741 5739 5738 5736 5734 5732 5730 5728 5726 5724 5722 5720 5718 5716 5715 5713 5712 5710 5709 5707 5705 5704 5702 5700 5698 5696 5695
5748 5747 5746 5745 5743 5742 5740 5739 5738 5737 5735 5734 5733 5731 5729 5727 5725 5723 5721 5719 5717 5715 5713 5711 5709 5707 5705 5704 5702 5700 5699 5697 5695 5693 5692 5690 5688 5685
5742 5741 5739 5738 5736 5735 5734 5732 5731 5730 5728 5727 5726 5724 5722 5720 5718 5716 5714 5712 5710 5707 5705 5703 5701 5699 5698 5696 5694 5692 5690 5688 5686 5684 5682 5680 5678 5676
5734 5733 5732 5730 5729 5727 5726 5725 5724 5722 5721 5720 5718 5717 5715 5713 5711 5709 5706 5704 5702 5700 5697 5695 5693 5691 5689 5688 5686 5683 5681 5679 5677 5675 5673 5671 5669 5667
5726 5725 5724 5722 5721 5720 5718 5717 5716 5715 5714 5712 5711 5709 5707 5705 5703 5701 5699 5697 5694 5692 5690 5687 5685 5682 5681 5679 5678 5676 5673 5671 5669 5667 5664 5662 5660 5658
5718 5717 5716 5714 5713 5712 5711 5710 5709 5708 5707 5705 5704 5702 5700 5698 5695 5693 5691 5689 5686 5684 5682 5679 5677 5674 5672 5671 5669 5667 5665 5662 5660 5658 5656 5653 5651 5649
5711 5710 5708 5707 5706 5705 5704 5703 5702 5701 5699 5698 5696 5694 5692 5690 5688 5685 5683 5681 5678 5676 5673 5671 5669 5667 5664 5662 5660 5658 5656 5654 5652 5649 5647 5645 5642 5640
5705 5703 5702 5700 5699 5698 5697 5696 5694 5693 5692 5690 5688 5687 5684 5682 5680 5677 5675 5672 5669 5667 5664 5662 5660 5658 5656 5653 5651 5649 5647 5645 5643 5641 5639 5636 5634 5632